Hourly Weather Bolshie Osetki

Today, 16 June, Wednesday

Time Temperature Precipitation Wind Pressure Humidity
00:00 +14°C° 0 mm 2 mps 746 mmHg 96%
01:00 +13°C° 0 mm 2 mps 747 mmHg 96%
02:00 +12°C° 0 mm 2 mps 747 mmHg 97%
03:00 +12°C° 0 mm 2 mps 747 mmHg 95%
04:00 +12°C° 0 mm 2 mps 748 mmHg 93%
05:00 +12°C° 0 mm 2 mps 748 mmHg 91%
06:00 +13°C° 0 mm 2 mps 748 mmHg 80%
07:00 +15°C° 0 mm 2 mps 749 mmHg 69%
08:00 +17°C° 0 mm 2 mps 749 mmHg 59%
09:00 +18°C° 0 mm 2 mps 749 mmHg 53%
10:00 +20°C° 0 mm 2 mps 749 mmHg 47%
11:00 +21°C° 0 mm 2 mps 750 mmHg 41%
12:00 +23°C° 0 mm 2 mps 750 mmHg 38%
13:00 +23°C° 0 mm 2 mps 750 mmHg 35%
14:00 +24°C° 0 mm 2 mps 750 mmHg 32%
15:00 +24°C° 0 mm 2 mps 750 mmHg 34%
16:00 +24°C° 0 mm 2 mps 750 mmHg 35%
17:00 +24°C° 0 mm 2 mps 750 mmHg 36%
18:00 +21°C° 0 mm 2 mps 750 mmHg 47%
19:00 +19°C° 0 mm 2 mps 750 mmHg 58%
20:00 +17°C° 0 mm 2 mps 751 mmHg 68%
21:00 +16°C° 0 mm 1 mps 751 mmHg 70%
22:00 +14°C° 0 mm 1 mps 751 mmHg 72%
23:00 +13°C° 0 mm 1 mps 752 mmHg 74%

Tomorrow, 17 June, Thursday

Time Temperature Precipitation Wind Pressure Humidity
00:00 +13°C° 0 mm 1 mps 752 mmHg 75%
01:00 +12°C° 0 mm 1 mps 752 mmHg 75%
02:00 +12°C° 0 mm 1 mps 753 mmHg 76%
03:00 +12°C° 0 mm 1 mps 753 mmHg 75%
04:00 +12°C° 0 mm 0 mps 753 mmHg 74%
05:00 +12°C° 0 mm 0 mps 753 mmHg 73%
06:00 +15°C° 0 mm 0 mps 754 mmHg 65%
07:00 +17°C° 0 mm 0 mps 754 mmHg 57%
08:00 +19°C° 0 mm 0 mps 754 mmHg 49%
09:00 +21°C° 0 mm 0 mps 754 mmHg 44%
10:00 +24°C° 0 mm 1 mps 754 mmHg 40%
11:00 +26°C° 0 mm 1 mps 755 mmHg 36%
12:00 +24°C° 0 mm 0 mps 755 mmHg 34%
13:00 +25°C° 0 mm 0 mps 754 mmHg 33%
14:00 +26°C° 0 mm 0 mps 754 mmHg 32%
15:00 +25°C° 0 mm 0 mps 754 mmHg 33%
16:00 +25°C° 0 mm 0 mps 754 mmHg 35%
17:00 +27°C° 0 mm 1 mps 754 mmHg 36%
18:00 +25°C° 0 mm 1 mps 754 mmHg 47%
19:00 +23°C° 0 mm 1 mps 754 mmHg 57%
20:00 +21°C° 0 mm 1 mps 754 mmHg 68%
21:00 +19°C° 0 mm 1 mps 754 mmHg 71%
22:00 +18°C° 0 mm 1 mps 755 mmHg 75%
23:00 +16°C° 0 mm 1 mps 755 mmHg 78%

Day after tomorrow, 18 June, Friday

Time Temperature Precipitation Wind Pressure Humidity
00:00 +16°C° 0 mm 1 mps 755 mmHg 79%
01:00 +15°C° 0 mm 1 mps 755 mmHg 81%
02:00 +15°C° 0 mm 1 mps 755 mmHg 83%
03:00 +15°C° 0 mm 1 mps 755 mmHg 83%
04:00 +16°C° 0 mm 1 mps 755 mmHg 82%
05:00 +16°C° 0 mm 1 mps 755 mmHg 82%
06:00 +18°C° 0 mm 2 mps 755 mmHg 75%
07:00 +20°C° 0 mm 2 mps 755 mmHg 67%
08:00 +23°C° 0 mm 2 mps 755 mmHg 60%
09:00 +25°C° 0 mm 3 mps 755 mmHg 54%
10:00 +26°C° 0 mm 3 mps 755 mmHg 48%
11:00 +27°C° 0 mm 3 mps 756 mmHg 43%
12:00 +28°C° 0 mm 3 mps 755 mmHg 41%
13:00 +28°C° 0 mm 3 mps 755 mmHg 40%
14:00 +29°C° 0 mm 3 mps 755 mmHg 39%
15:00 +28°C° 0 mm 3 mps 755 mmHg 41%
16:00 +28°C° 0 mm 3 mps 754 mmHg 43%
17:00 +28°C° 0 mm 3 mps 754 mmHg 46%
18:00 +26°C° 0 mm 3 mps 754 mmHg 56%
19:00 +24°C° 0 mm 2 mps 754 mmHg 67%
20:00 +21°C° 0 mm 2 mps 754 mmHg 77%
21:00 +20°C° 0 mm 2 mps 754 mmHg 82%
22:00 +18°C° 0 mm 2 mps 755 mmHg 86%
23:00 +17°C° 0 mm 2 mps 755 mmHg 91%

19 June, Saturday

Time Temperature Precipitation Wind Pressure Humidity
00:00 +17°C° 0 mm 2 mps 755 mmHg 91%
01:00 +16°C° 0 mm 2 mps 755 mmHg 91%
02:00 +16°C° 0 mm 2 mps 755 mmHg 91%
03:00 +16°C° 0 mm 2 mps 755 mmHg 90%
04:00 +16°C° 0 mm 2 mps 755 mmHg 88%
05:00 +18°C° 0 mm 1 mps 756 mmHg 87%
06:00 +19°C° 0 mm 2 mps 756 mmHg 79%
07:00 +21°C° 0 mm 2 mps 756 mmHg 70%
08:00 +24°C° 0 mm 2 mps 756 mmHg 62%
09:00 +25°C° 0 mm 2 mps 755 mmHg 57%
10:00 +27°C° 0 mm 3 mps 755 mmHg 51%
11:00 +28°C° 0 mm 3 mps 755 mmHg 46%
12:00 +28°C° 0 mm 3 mps 755 mmHg 45%
13:00 +29°C° 0 mm 3 mps 755 mmHg 43%
14:00 +30°C° 0 mm 3 mps 754 mmHg 42%
15:00 +29°C° 0 mm 3 mps 754 mmHg 44%
16:00 +29°C° 0 mm 3 mps 754 mmHg 46%
17:00 +28°C° 0 mm 3 mps 754 mmHg 48%
18:00 +26°C° 0 mm 3 mps 754 mmHg 58%
19:00 +25°C° 0 mm 2 mps 754 mmHg 68%
20:00 +23°C° 0 mm 2 mps 754 mmHg 78%
21:00 +20°C° 0 mm 2 mps 754 mmHg 83%
22:00 +19°C° 0 mm 2 mps 754 mmHg 88%
23:00 +18°C° 0 mm 2 mps 754 mmHg 92%

20 June, Sunday

Time Temperature Precipitation Wind Pressure Humidity
00:00 +18°C° 0 mm 2 mps 754 mmHg 93%
01:00 +17°C° 0 mm 2 mps 754 mmHg 94%
02:00 +17°C° 0 mm 2 mps 754 mmHg 95%
03:00 +17°C° 0 mm 2 mps 754 mmHg 93%
04:00 +17°C° 0 mm 2 mps 754 mmHg 92%
05:00 +19°C° 0 mm 1 mps 754 mmHg 90%
06:00 +20°C° 0 mm 2 mps 754 mmHg 81%
07:00 +21°C° 0 mm 2 mps 754 mmHg 72%
08:00 +24°C° 0 mm 2 mps 754 mmHg 63%
09:00 +26°C° 0 mm 3 mps 753 mmHg 58%
10:00 +27°C° 0 mm 3 mps 753 mmHg 53%
11:00 +28°C° 0 mm 3 mps 753 mmHg 47%
12:00 +29°C° 0 mm 3 mps 753 mmHg 45%
13:00 +29°C° 0 mm 3 mps 752 mmHg 43%
14:00 +30°C° 0 mm 3 mps 752 mmHg 41%
15:00 +30°C° 0 mm 3 mps 752 mmHg 43%
16:00 +29°C° 0 mm 3 mps 752 mmHg 44%
17:00 +29°C° 0 mm 3 mps 752 mmHg 46%
18:00 +27°C° 0 mm 2 mps 752 mmHg 55%
19:00 +26°C° 0 mm 2 mps 752 mmHg 65%
20:00 +24°C° 0 mm 2 mps 752 mmHg 74%
21:00 +23°C° 0 mm 2 mps 752 mmHg 79%
22:00 +21°C° 0 mm 2 mps 752 mmHg 84%
23:00 +20°C° 0 mm 2 mps 752 mmHg 88%

21 June, Monday

Time Temperature Precipitation Wind Pressure Humidity
00:00 +19°C° 0 mm 2 mps 752 mmHg 90%
01:00 +19°C° 0 mm 2 mps 752 mmHg 92%
02:00 +19°C° 0 mm 2 mps 752 mmHg 94%
03:00 +20°C° 0 mm 1 mps 752 mmHg 92%
04:00 +20°C° 0 mm 1 mps 752 mmHg 91%
05:00 +21°C° 0 mm 1 mps 752 mmHg 90%
06:00 +22°C° 0 mm 1 mps 752 mmHg 82%
07:00 +24°C° 0 mm 1 mps 752 mmHg 74%
08:00 +26°C° 0 mm 1 mps 752 mmHg 66%
09:00 +28°C° 0 mm 1 mps 752 mmHg 60%
10:00 +29°C° 0 mm 1 mps 752 mmHg 55%
11:00 +30°C° 0 mm 1 mps 752 mmHg 49%
12:00 +31°C° 0 mm 2 mps 751 mmHg 47%
13:00 +31°C° 0 mm 2 mps 751 mmHg 44%
14:00 +32°C° 0 mm 2 mps 751 mmHg 42%
15:00 +30°C° 0 mm 2 mps 751 mmHg 49%
16:00 +29°C° 0 mm 1 mps 751 mmHg 56%
17:00 +27°C° 0 mm 1 mps 751 mmHg 63%
18:00 +26°C° 0 mm 1 mps 751 mmHg 67%
19:00 +26°C° 0 mm 1 mps 750 mmHg 71%
20:00 +25°C° 0 mm 1 mps 750 mmHg 75%
21:00 +24°C° 0 mm 1 mps 750 mmHg 77%
22:00 +23°C° 0 mm 1 mps 751 mmHg 80%
23:00 +22°C° 0 mm 1 mps 751 mmHg 82%
Show more